Location: Doazon
(43.4500°N, 0.5500°W)
Time: 10:40:53
(UTC+00:00)

Cosmos 1697 Rocket - Pass Details

Date: 05 December 2025
Orbit: 830 x 843 km, 71.0° (Epoch: 21 January)

Event Time Altitude Azimuth Distance (km) Brightness Sun altitude
Rises 18:44:08 0° 203° (SSW) 3,358 6.2 -24.3°
Reaches altitude 10° 18:46:33 10° 203° (SSW) 2,429 5.5 -24.7°
Maximum altitude 18:52:08 89° 289° (WNW) 837 2.5 -25.7°
Enters shadow 18:53:13 60° 23° (NNE) 948 2.7 -25.9°
